Preview of NWS' New Version of Forecast
This preview is not operational and should not be used for support decisions.
Latest weather observations around

Whitefield - Mount Washington Regional Airport (KHIE)

Using English Units (Switch to International System of Units)
Date/ Time (EDT) Wind (mph) Vis. (mi) Weather Sky Cond. Temp (°F) Rel. Humidity Wind Chill (°F) Heat Index (°F) Pressure Precip. (in)
Air Dwpt 6 hour Altimeter (inHg) Sea level (inHg) 1 hr 3 hr 6 hr
Max Min
Jun 22 11:52 W 8 10 Clear CLR 71 44     38%   70 30.06 30.06      
Jun 22 10:52 6 10 Clear CLR 69 42     38%     30.06 30.06      
Jun 22 09:52 Calm 10 Clear CLR 65 45     48%     30.07 30.07      
Jun 22 08:52 Calm 10 Clear CLR 58 44     60%     30.08 30.08      
Jun 22 06:52 Calm 10 Clear CLR 42 39     89%     30.08 30.09      
Jun 22 05:52 Calm 10 Clear CLR 35 34     96%     30.05 30.06      
Jun 22 04:52 Calm 10 Mostly Clear FEW001 35 34     96%     30.03 30.05      
Jun 22 04:48 Calm 10 Mostly Clear FEW001 36 34     93%     30.03        
Jun 22 04:25 Calm 10 Mostly Cloudy BKN001 34 32     92%     30.03        
Jun 22 03:52 Calm 10 Mostly Clear FEW001 36 34     92%     30.01 30.02      
Jun 22 03:36 Calm 10 Partly Cloudy SCT001 36 35     96%     30.01        
Jun 22 02:52 Calm 10 Clear CLR 37 36     96%     30 30.01      
Jun 22 01:52 Calm 10 Clear CLR 40 38     93%     30.01 30.02      
Jun 22 00:52 Calm 10 Clear CLR 42 40     92%     30.01 30.02      
Jun 21 23:52 Calm 10 Clear CLR 44 40     85%     30.01 30.01      
Jun 21 22:52 Calm 10 Clear CLR 47 42     83%     29.99 29.99      
Jun 21 21:52 Calm 10 Clear CLR 50 44     80%     29.96 29.96      
Jun 21 20:52 Calm 10 Clear CLR 59 40     49%     29.93 29.93      
Jun 21 19:52 N 5 10 Clear CLR 64 41     43%     29.9 29.9      
Jun 21 18:52 N 10 10 Clear CLR 68 39     35%     29.88 29.88      
Jun 21 17:52 7 10 Clear CLR 71 39     31%   69 29.86 29.86      
Jun 21 16:52 NW 8 10 Clear CLR 71 37     29%   69 29.86 29.85      
Jun 21 15:52 5 10 Clear CLR 72 41     33%   70 29.85 29.84      
Jun 21 14:52 N 8 10 Clear CLR 73 39     29%   71 29.84 29.83      
Jun 21 13:52 NNW 10 10 Clear CLR 72 41     33%   70 29.84 29.83      
Jun 21 13:36 NNW 11 10 Clear CLR 72 40     31%   70 29.84        
Jun 21 13:26 7 1.25 Haze CLR 72 40     31%   70 29.84        
Jun 21 13:10 WNW 8 4 Haze CLR 71 40     32%   69 29.83        
Jun 21 13:03 WNW 13 0.75 Haze CLR 72 40     31%   70 29.84        
Jun 21 12:52 NNW 11 1.5 Haze CLR 72 39     30%   70 29.84 29.83      
Jun 21 12:48 N 10 1.5 Haze CLR 73 41     31%   72 29.84        
Jun 21 12:36 NW 9 0.75 Haze CLR 71 40     32%   69 29.84        
Jun 21 12:17 W 8 1.75 Haze CLR 70 40     33%     29.83        
Jun 21 11:52 WNW 8 10 Partly Cloudy SCT055 72 44     37%   71 29.83 29.83      
Jun 21 10:52 5 10 Mostly Cloudy BKN050 68 46     45%     29.84 29.84      
Jun 21 09:52 NNW 5 10 Clear CLR 69 46     44%     29.83 29.83      
Jun 21 08:52 Calm 10 Partly Cloudy FEW030 SCT038 67 53     61%     29.83 29.82      
Jun 21 07:52 NNW 5 10 Mostly Cloudy FEW037 BKN110 63 55     75%     29.82 29.81      
Jun 21 06:52 Calm 10 Cloudy SCT030 OVC040 60 56     86%     29.81 29.8      
Jun 21 05:52 Calm 10 Clear CLR 55 52     89%     29.79 29.78      
Jun 21 04:52 Calm 10 Partly Cloudy SCT029 56 52     87%     29.77 29.76      
Jun 21 03:52 Calm 10 Mostly Cloudy BKN100 58 54     87%     29.76 29.75      
Jun 21 02:52 Calm 10 Cloudy OVC090 60 54     80%     29.76 29.75      
Jun 21 01:52 Calm 10 Cloudy FEW060 OVC085 59 54     83%     29.77 29.76      
Jun 21 00:52 NW 3 10 Mostly Cloudy FEW070 BKN090 57 54     89%     29.77 29.76      
Jun 20 23:52 Calm 10 Cloudy FEW065 OVC085 56 54     93%     29.77 29.77      
Jun 20 22:52 Calm 10 Partly Cloudy SCT070 56 53     90%     29.77 29.76      
Jun 20 21:52 Calm 10 Clear CLR 58 53     84%     29.77 29.77      
Jun 20 20:52 Calm 10 Clear CLR 62 54     75%     29.76 29.76      
Jun 20 19:52 SW 3 10 Clear CLR 71 51     49%   70 29.76 29.75      
Jun 20 18:52 W 6 10 Clear CLR 75 48     38%   74 29.76 29.76      
Jun 20 17:52 W 8 10 Clear CLR 76 45     33%   75 29.76 29.76      
Jun 20 16:52 W 9 10 Clear CLR 77 45     32%   76 29.77 29.77      
Jun 20 15:52 WSW 8 10 Clear CLR 77 49     37%   76 29.78 29.78      
Jun 20 14:52 WSW 9 10 Clear CLR 77 47     35%   76 29.79 29.79      
Jun 20 13:52 W 10 10 Clear CLR 76 47     36%   75 29.81 29.8      
Jun 20 12:52 SW 8 10 Clear CLR 75 49     40%   74 29.82 29.82      
Jun 20 11:52 W 7 10 Clear CLR 72 48     43%   71 29.85 29.85      
Jun 20 10:52 W 7 10 Clear CLR 72 48     43%   71 29.86 29.86      
Jun 20 09:52 5 10 Clear CLR 69 49     49%     29.88 29.88      
Jun 20 08:52 Calm 10 Clear CLR 65 53     65%     29.9 29.9      
Jun 20 07:52 Calm 10 Clear CLR 57 50     77%     29.92 29.92     0
Jun 20 06:52 Calm 10 Clear CLR 47 46     97%     29.92 29.93 0    
Jun 20 05:52 Calm 6 Fog/Mist CLR 41 40     96%     29.91 29.92      
Jun 20 05:40 Calm 10 Partly Cloudy SCT001 41 40     96%     29.92        
Jun 20 05:33 Calm 4 Fog/Mist BKN001 41 41     100%     29.92        
Jun 20 05:30 Calm 1.5 Fog/Mist BKN001 41 40     96%     29.92        
Jun 20 05:05 Calm 0.25 Fog VV002 40 40     100%     29.92        
Jun 20 04:58 Calm 1 Fog/Mist OVC001 41 39     93%     29.92        
Jun 20 04:52 Calm 3 Fog/Mist OVC001 40 39     97%     29.91 29.92 0 0  
Jun 20 04:31 Calm 6 Fog/Mist BKN001 41 40     96%     29.91   0    
Jun 20 04:04 Calm 10 Mostly Clear FEW001 42 41     96%     29.9   0    
Jun 20 03:52 Calm 10 Light Rain CLR 42 40     92%     29.91 29.91 0    
Jun 20 02:52 Calm 10 Light Rain CLR 42 41     96%     29.91 29.92 0    
Jun 20 01:52 Calm 10 Clear   45 44     97%     29.92 29.92 0    
Jun 20 00:52 Calm 10 Clear CLR 47 45     93%     29.93 29.93      
Jun 19 23:52 E 5 10 Clear CLR 50 48     93% 48   29.93 29.93      
Jun 19 22:52 Calm 10 Clear CLR 53 50     89%     29.93 29.93      
Jun 19 21:52 Calm 10 Clear CLR 54 51     90%     29.92 29.92      
Jun 19 20:52 Calm 10 Clear CLR 59 52     78%     29.9 29.9      
Jun 19 19:52 WNW 6 10 Clear CLR 67 50     55%     29.88 29.88      
Jun 19 18:52 WNW 9 10 Clear CLR 70 50     49%     29.86 29.86      
Jun 19 17:52 NW 11 10 Clear CLR 71 47     42%   70 29.86 29.85      
Jun 19 16:52 NNW 15 10 Clear CLR 71 46     41%   70 29.85 29.84      
Jun 19 15:52 WNW 14 10 Clear CLR 71 47     42%   70 29.85 29.83      
Jun 19 14:52   10 Clear CLR 72 48     43%   71 29.84 29.83      
Jun 19 13:52 NNW 13 10 Clear CLR 70 47     44%     29.84 29.83      
Jun 19 12:52 WNW 14 10 Clear CLR 69 48     47%     29.85 29.84      
Jun 19 11:52 NW 15   Clear CLR 68 50     53%     29.85 29.84      
May 15 12:30 NE 5 3 Light Rain and Fog/Mist FEW008 BKN015 OVC055 61 59     93%     29.77   0    
May 15 04:52 Calm 10 Clear CLR 44 41     89%     29.8 29.8      
May 14 18:52 WSW 7 10 Clear CLR 75 42     31%   74 29.81 29.81      
May 14 05:52 Calm 10 Clear CLR 33 31     92%     29.97 29.98      
May 12 08:52 3 10 Clear   47 28     48% 46   30.2 30.22      
May 12 04:52 Calm 10 Clear CLR 28 25     88%     30.18 30.21      
May 12 01:52 Calm 10 Clear CLR 29 25     85%     30.18 30.2      
Notice The following observation data may not be complete
Jun 12 04:52 Calm 8 Clear CLR   55      %     29.97 29.96      
Jun 11 14:52 WSW 14 10 Clear CLR 87 58     37%   86 29.86 29.85      
Jun 11 13:52   10 Clear CLR 84 59     43%   84 29.86 29.85      
Jun 11 02:52 Calm 10 Partly Cloudy SCT100 53 50     89%     29.93 29.93      
Notice The following observation data may not be complete
Jun 10 03:16   8 Clear CLR          %         0    
Jun 09 07:52 SSE 5 10 Cloudy OVC070 54 50     86%     29.69 29.68      
Jun 08 22:52 Calm 10 Clear CLR 58 52     81%     29.85 29.84      
Jun 08 10:52 NNW 3 10 Clear CLR 75 50     41%   74 30.02 30.01      
Jun 08 03:52 Calm 10 Clear CLR 42 39     89%     30.03 30.03      
Jun 08 02:52 Calm 10 Clear CLR 43 40     89%     30.03 30.03      
Jun 07 20:52 Calm 10 Clear CLR 58 51     78%     29.98 29.99      
Jun 07 12:52 NW 7 10 Clear CLR 71 49     45%   70 29.96 29.96      
Jun 07 09:52 Calm 10 Partly Cloudy SCT009 57 50     77%     30.02 30.03      
Jun 06 12:52 E 8 10 Light Rain OVC075 50 42     74% 47   29.89 29.9 0    
Jun 05 20:52 Calm 10 Cloudy BKN040 BKN055 OVC070 55 46     72%     29.89 29.89